Flag for U.S.A. Weather past 2 weeks in Binghamton, New York, U.S.A.

Now
22 °F

Light snow. Ice fog.


Feels Like: 13 °F
Forecast: 10 / 29 °F
Wind: 7 mph from South

Location: Binghamton Regional Airport

Current Time: Jan 30, 2015 at 12:56:51 AM

Latest Report: Jan 29, 2015 at 11:53 PM


Visibility: 1 mi

Pressure: 29.85 "Hg

Humidity: 92%

Dew point: 20 °F

Location of BinghamtonLocation

Historic Weather in Binghamton — Graph

°F

Binghamton temperature yesterday

Maximum temperature yesterday: 30 °F (at 2:53 PM)
Minimum temperature yesterday: 3 °F (at 7:53 AM)
Average temperature yesterday: 18 °F

Past Weeks' High & Low Weather Summary

 TemperatureHumidityPressure
High38 °F (Jan 18, 12:53 PM)100% (Jan 18, 9:02 PM)30.36 "Hg (Jan 18, 9:02 PM)
Low2 °F (Jan 17, 8:53 AM)30% (Jan 29, 2:53 PM)29.39 "Hg (Jan 24, 2:53 PM)
Average19 °F76%29.98 "Hg
* Reported Jan 14 10:53 PM — Jan 29 10:53 PM, Binghamton, Weather by CustomWeather, © 2014

Note: Actual official high and low records may vary slightly from our data, if they occured in-between our weather recording intervals... More about our weather records

Advertising

Binghamton weather history for previous 24 hours

 ConditionsComfort  
Time TempWeatherWind HumidityBarometerVisibility
10:53 PM
Jan 29
23 °FIce fog.9 mph88%29.87 "Hg6 mi
9:53 PM23 °FOvercast.14 mph85%29.90 "Hg10 mi
8:53 PM23 °FOvercast.13 mph78%29.92 "Hg10 mi
8:03 PM23 °FLight snow. Ice fog.10 mph85%29.84 "Hg6 mi
7:58 PM22 °FLight snow. Ice fog.8 mph89%29.84 "Hg3 mi
6:53 PM25 °FLight snow. Mostly cloudy.17 mph69%29.93 "Hg1 mi
5:53 PM28 °FMostly cloudy.18 mph35%29.93 "Hg10 mi
4:53 PM29 °FOvercast.16 mph31%29.93 "Hg10 mi
3:53 PM30 °FOvercast.18 mph30%29.95 "Hg10 mi
2:53 PM30 °FOvercast.16 mph30%29.97 "Hg10 mi
1:53 PM28 °FOvercast.15 mph32%30.00 "Hg10 mi
12:53 PM27 °FMore clouds than sun.14 mph35%30.04 "Hg10 mi
11:53 AM25 °FOvercast.14 mph38%30.11 "Hg10 mi
10:53 AM19 °FOvercast.12 mph57%30.17 "Hg10 mi
9:53 AM13 °FPassing clouds.7 mph74%30.21 "Hg10 mi
8:53 AM8 °FSunny.7 mph83%30.23 "Hg10 mi
7:53 AM3 °FSunny.8 mph95%30.25 "Hg10 mi
6:53 AM5 °FClear.No wind87%30.28 "Hg10 mi
5:53 AM10 °FClear.3 mph80%30.28 "Hg10 mi
4:53 AM9 °FClear.5 mph84%30.30 "Hg10 mi
3:53 AM7 °FClear.5 mph87%30.29 "Hg10 mi
2:53 AM8 °FClear.5 mph83%30.31 "Hg10 mi
1:53 AM11 °FClear.No wind77%30.30 "Hg10 mi
12:53 AM13 °FClear.3 mph70%30.30 "Hg10 mi
Weather by CustomWeather, © 2014

See weather overviewHow to use our weather pages